Total_Precipitation_Accumulation
0.76 0.76 0.85 0.93 0.98 1.00 1.12 1.03 0.87 0.80 0.74 0.68 0.62 0.62 0.62 0.63 0.70 0.84 0.98 1.10 1.19 1.22 1.20 1.24 1.27 1.36 1.38 1.28 1.32 1.37 1.47 1.59 1.43 1.12 1.16 1.28 1.16 0.90 0.73 0.64 0.55 0.56 0.53
0.74 0.79 0.84 0.88 0.91 0.90 0.94 0.99 0.98 0.86 0.76 0.71 0.67 0.64 0.54 0.54 0.65 0.78 0.91 1.06 1.19 1.28 1.30 1.33 1.22 1.23 1.33 1.34 1.35 1.36 1.38 1.52 1.43 1.30 1.26 1.36 1.36 1.18 0.99 0.77 0.55 0.46 0.49
0.79 0.82 0.78 0.78 0.74 0.75 0.79 0.84 0.91 0.95 0.94 0.88 0.80 0.73 0.69 0.72 0.79 0.85 0.88 1.00 1.14 1.22 1.26 1.23 1.18 1.23 1.19 1.28 1.34 1.32 1.31 1.30 1.37 1.36 1.33 1.46 1.47 1.31 1.11 0.88 0.67 0.63 0.55
0.71 0.70 0.70 0.73 0.75 0.81 0.84 0.86 0.89 0.91 0.96 0.95 0.90 0.92 0.94 0.98 0.96 0.92 0.89 0.93 0.97 1.01 1.05 1.03 1.01 1.04 1.09 1.17 1.18 1.20 1.23 1.27 1.33 1.31 1.36 1.50 1.53 1.51 1.32 1.05 0.84 0.73 0.65
0.75 0.72 0.67 0.70 0.76 0.80 0.82 0.84 0.84 0.86 0.87 1.01 1.04 1.08 1.11 1.08 0.98 0.99 0.99 0.90 0.95 0.90 0.85 0.85 0.86 0.91 0.94 0.99 0.94 1.01 1.11 1.18 1.23 1.32 1.39 1.53 1.54 1.60 1.44 1.17 1.00 0.87 0.74
0.75 0.80 0.82 0.79 0.75 0.79 0.83 0.82 0.84 0.88 0.97 1.09 1.14 1.16 1.14 1.01 1.01 1.00 0.96 0.91 0.95 0.93 0.89 0.86 0.79 0.79 0.77 0.78 0.80 0.85 0.95 1.05 1.14 1.27 1.35 1.46 1.55 1.54 1.48 1.34 1.19 1.01 0.79
0.83 0.84 0.91 0.99 0.91 0.97 1.00 0.96 0.96 1.00 1.10 1.16 1.29 1.33 1.29 1.27 1.13 0.97 0.91 0.88 0.94 0.98 1.01 1.00 0.79 0.66 0.74 0.77 0.85 0.80 0.78 0.83 0.95 1.11 1.20 1.31 1.50 1.58 1.61 1.48 1.42 1.26 0.99
0.87 0.92 1.06 1.19 1.11 1.12 1.12 1.11 1.16 1.25 1.29 1.38 1.43 1.36 1.34 1.30 1.17 0.94 0.85 0.77 0.82 0.90 0.96 0.98 0.95 0.89 0.89 0.93 0.97 0.93 0.84 0.77 0.81 0.87 0.93 1.13 1.48 1.73 1.76 1.70 1.67 1.54 1.27
0.95 1.09 1.24 1.37 1.42 1.38 1.33 1.41 1.46 1.50 1.56 1.65 1.69 1.63 1.54 1.47 1.24 0.93 0.81 0.74 0.81 0.85 0.90 0.91 0.92 0.85 0.79 0.71 0.77 0.85 0.87 0.83 0.77 0.82 0.87 1.00 1.22 1.54 1.73 1.76 1.79 1.62 1.35
1.08 1.12 1.22 1.39 1.48 1.50 1.48 1.60 1.72 1.75 1.77 1.81 1.71 1.59 1.51 1.48 1.34 1.02 0.88 0.84 0.93 0.97 1.05 1.04 0.94 0.85 0.77 0.64 0.68 0.78 0.80 0.81 0.87 0.89 0.86 0.85 0.96 1.22 1.49 1.51 1.53 1.58 1.35
1.04 1.09 1.18 1.41 1.68 1.71 1.76 1.81 1.89 1.92 1.94 1.94 1.84 1.74 1.65 1.59 1.47 1.10 0.93 0.93 1.03 1.09 1.04 1.03 0.96 0.85 0.70 0.60 0.59 0.66 0.69 0.74 0.88 0.96 0.99 1.01 1.07 1.16 1.29 1.37 1.44 1.48 1.42
1.07 1.14 1.28 1.53 1.63 1.72 1.87 1.92 2.05 2.14 2.10 2.04 2.02 1.87 1.79 1.70 1.45 1.16 0.95 0.95 1.06 1.20 1.19 1.14 1.08 0.94 0.74 0.63 0.53 0.50 0.53 0.57 0.68 0.82 0.90 0.93 0.98 1.03 1.13 1.29 1.47 1.51 1.48
1.07 1.12 1.23 1.37 1.47 1.60 1.67 1.66 1.74 1.85 1.86 1.87 1.86 1.79 1.76 1.78 1.56 1.18 0.97 0.92 1.01 1.15 1.28 1.34 1.17 1.00 0.87 0.74 0.68 0.61 0.57 0.55 0.64 0.72 0.79 0.79 0.84 0.93 1.09 1.31 1.52 1.71 1.65
1.03 1.00 1.09 1.27 1.34 1.41 1.52 1.55 1.64 1.70 1.74 1.81 1.84 1.77 1.73 1.80 1.72 1.40 1.14 1.01 0.97 1.00 1.07 1.09 1.03 0.98 0.89 0.78 0.69 0.60 0.51 0.53 0.59 0.62 0.69 0.78 0.88 1.05 1.14 1.16 1.26 1.46 1.62
1.05 1.01 1.05 1.16 1.25 1.33 1.44 1.53 1.55 1.58 1.56 1.59 1.63 1.60 1.61 1.70 1.64 1.40 1.21 1.08 1.00 0.99 1.03 1.09 1.08 1.07 0.97 0.88 0.79 0.73 0.70 0.69 0.65 0.66 0.74 0.84 0.90 0.97 1.06 1.12 1.18 1.22 1.26
1.10 1.03 1.01 1.03 1.13 1.20 1.28 1.28 1.20 1.19 1.16 1.13 1.16 1.11 1.11 1.27 1.27 1.04 0.91 0.93 0.92 0.89 0.93 1.00 1.06 1.09 1.03 0.94 0.88 0.82 0.81 0.78 0.75 0.78 0.83 0.89 0.93 0.95 1.01 1.14 1.25 1.25 1.16
1.26 1.12 1.00 0.95 0.98 1.05 1.16 1.24 1.26 1.15 1.07 1.00 0.96 0.86 0.80 1.00 1.08 0.94 0.81 0.76 0.73 0.75 0.82 0.90 0.94 1.00 1.03 0.94 0.86 0.81 0.81 0.81 0.86 0.89 0.89 0.92 0.99 1.04 1.10 1.19 1.30 1.36 1.27
1.23 1.12 0.97 0.93 0.93 0.93 0.99 1.08 1.15 1.23 1.21 1.05 0.90 0.78 0.68 0.79 0.89 0.84 0.73 0.64 0.63 0.66 0.72 0.80 0.87 0.92 0.99 0.96 0.88 0.88 0.92 0.98 0.98 0.98 0.99 1.00 1.06 1.11 1.15 1.19 1.23 1.28 1.27
1.11 1.03 0.92 0.89 0.91 0.84 0.79 0.86 0.94 1.03 1.13 1.10 0.91 0.80 0.70 0.75 0.81 0.76 0.64 0.57 0.61 0.61 0.63 0.69 0.77 0.85 0.89 0.89 0.89 0.92 0.94 0.98 0.93 0.95 1.01 1.06 1.04 1.08 1.07 1.10 1.17 1.25 1.28
0.88 0.75 0.73 0.78 0.78 0.75 0.75 0.79 0.89 0.99 1.07 1.05 0.93 0.81 0.70 0.72 0.80 0.78 0.67 0.63 0.62 0.58 0.57 0.63 0.72 0.77 0.83 0.86 0.93 0.97 0.95 0.99 1.02 0.97 1.00 1.07 1.02 1.01 1.01 1.01 1.12 1.17 1.18
0.72 0.59 0.50 0.55 0.66 0.71 0.76 0.83 0.94 1.02 1.04 0.96 0.82 0.67 0.58 0.55 0.65 0.66 0.68 0.69 0.66 0.65 0.65 0.65 0.69 0.74 0.76 0.84 0.92 0.98 0.99 1.02 1.05 1.00 0.99 1.07 1.05 1.05 1.08 1.05 1.06 1.17 1.18
0.68 0.56 0.47 0.49 0.56 0.61 0.72 0.85 0.93 0.94 0.88 0.82 0.74 0.64 0.60 0.57 0.62 0.64 0.69 0.68 0.65 0.65 0.61 0.62 0.65 0.72 0.76 0.80 0.86 0.93 0.96 0.96 1.00 1.03 1.02 1.06 1.08 1.06 1.09 1.07 1.06 1.16 1.25
0.62 0.48 0.39 0.38 0.42 0.45 0.58 0.76 0.82 0.77 0.69 0.67 0.67 0.65 0.65 0.66 0.64 0.66 0.68 0.66 0.64 0.61 0.57 0.61 0.65 0.69 0.75 0.76 0.76 0.83 0.88 0.89 0.88 0.94 1.04 1.06 1.09 1.11 1.12 1.14 1.14 1.16 1.24
0.53 0.40 0.29 0.26 0.30 0.40 0.55 0.72 0.74 0.66 0.62 0.64 0.65 0.66 0.67 0.66 0.64 0.65 0.67 0.68 0.67 0.65 0.63 0.64 0.64 0.62 0.65 0.71 0.70 0.68 0.69 0.67 0.68 0.76 0.88 0.98 1.03 1.11 1.11 1.12 1.15 1.13 1.21
0.49 0.40 0.31 0.26 0.30 0.43 0.61 0.72 0.65 0.59 0.58 0.59 0.57 0.61 0.65 0.68 0.68 0.68 0.68 0.70 0.70 0.72 0.69 0.65 0.64 0.61 0.56 0.56 0.59 0.57 0.55 0.47 0.48 0.57 0.69 0.82 0.88 0.98 1.04 1.04 1.12 1.15 1.16
0.45 0.42 0.36 0.32 0.37 0.49 0.62 0.66 0.61 0.57 0.60 0.57 0.56 0.59 0.64 0.68 0.67 0.65 0.66 0.67 0.66 0.64 0.58 0.55 0.54 0.55 0.53 0.51 0.46 0.42 0.37 0.35 0.37 0.45 0.55 0.67 0.78 0.86 0.93 0.98 1.03 1.11 1.11